TimeAKDT,TemperatureF,Dew PointF,Humidity,Sea Level PressureIn,VisibilityMPH,Wind Direction,Wind SpeedMPH,Gust SpeedMPH,PrecipitationIn,Events,Conditions,WindDirDegrees,DateUTC
12:16 AM,44.6,42.8,93,30.32,10.0,Calm,Calm,-,N/A,,Partly Cloudy,0,2012-10-07 08:16:00
12:36 AM,44.6,42.8,93,30.33,10.0,SSW,3.5,-,N/A,,Partly Cloudy,200,2012-10-07 08:36:00
12:56 AM,44.6,42.8,93,30.32,10.0,Calm,Calm,-,N/A,,Clear,0,2012-10-07 08:56:00
1:16 AM,44.6,42.8,93,30.32,10.0,West,3.5,-,N/A,,Clear,270,2012-10-07 09:16:00
1:36 AM,44.6,41.0,87,30.33,10.0,WNW,3.5,-,N/A,,Clear,300,2012-10-07 09:36:00
1:56 AM,44.6,41.0,87,30.32,10.0,NW,3.5,-,N/A,,Clear,320,2012-10-07 09:56:00
2:16 AM,44.6,42.8,93,30.32,10.0,WNW,4.6,-,N/A,,Clear,300,2012-10-07 10:16:00
2:36 AM,44.6,41.0,87,30.32,10.0,West,3.5,-,N/A,,Clear,280,2012-10-07 10:36:00
2:56 AM,44.6,41.0,87,30.31,10.0,WNW,3.5,-,N/A,,Clear,300,2012-10-07 10:56:00
3:16 AM,42.8,39.2,87,30.31,10.0,Calm,Calm,-,N/A,,Scattered Clouds,0,2012-10-07 11:16:00
3:36 AM,42.8,39.2,87,30.31,0.5,Calm,Calm,-,N/A,,Overcast,0,2012-10-07 11:36:00
3:56 AM,42.8,41.0,93,30.31,0.5,WNW,3.5,-,N/A,,Overcast,300,2012-10-07 11:56:00
4:16 AM,44.6,41.0,87,30.30,1.0,West,3.5,-,N/A,,Overcast,270,2012-10-07 12:16:00
4:36 AM,44.6,42.8,93,30.30,0.5,NW,3.5,-,N/A,,Overcast,320,2012-10-07 12:36:00
4:56 AM,44.6,42.8,93,30.30,0.2,NW,6.9,-,N/A,,Overcast,320,2012-10-07 12:56:00
5:16 AM,44.6,42.8,93,30.30,0.2,NNW,5.8,-,N/A,,Overcast,330,2012-10-07 13:16:00
5:36 AM,44.6,42.8,93,30.30,0.2,NW,6.9,-,N/A,,Overcast,320,2012-10-07 13:36:00
5:56 AM,44.6,42.8,93,30.29,0.2,WNW,5.8,-,N/A,,Overcast,300,2012-10-07 13:56:00
6:16 AM,44.6,42.8,93,30.29,0.2,NW,6.9,-,N/A,,Overcast,310,2012-10-07 14:16:00
6:36 AM,44.6,42.8,93,30.30,0.2,WNW,3.5,-,N/A,,Overcast,300,2012-10-07 14:36:00
6:56 AM,44.6,42.8,93,30.29,0.2,NNW,4.6,-,N/A,,Overcast,330,2012-10-07 14:56:00
7:16 AM,44.6,42.8,93,30.29,0.2,Calm,Calm,-,N/A,,Overcast,0,2012-10-07 15:16:00
7:36 AM,44.6,42.8,93,30.29,0.2,NW,5.8,-,N/A,,Overcast,310,2012-10-07 15:36:00
7:56 AM,44.6,42.8,93,30.30,0.2,WNW,4.6,-,N/A,,Overcast,290,2012-10-07 15:56:00
8:16 AM,44.6,42.8,93,30.30,0.2,WNW,3.5,-,N/A,,Overcast,290,2012-10-07 16:16:00
8:36 AM,44.6,42.8,93,30.30,0.2,West,3.5,-,N/A,,Overcast,280,2012-10-07 16:36:00
8:56 AM,46.4,44.6,93,30.29,0.8,NW,4.6,-,N/A,,Overcast,320,2012-10-07 16:56:00
9:16 AM,46.4,44.6,93,30.29,0.8,Calm,Calm,-,N/A,,Overcast,0,2012-10-07 17:16:00
9:36 AM,46.4,42.8,87,30.29,0.8,WNW,3.5,-,N/A,,Overcast,300,2012-10-07 17:36:00
9:56 AM,46.4,44.6,93,30.29,0.8,NNW,4.6,-,N/A,,Overcast,330,2012-10-07 17:56:00
10:16 AM,46.4,44.6,93,30.29,0.8,NW,3.5,-,N/A,,Overcast,320,2012-10-07 18:16:00
10:36 AM,46.4,44.6,93,30.29,0.8,WNW,4.6,-,N/A,,Overcast,290,2012-10-07 18:36:00
10:56 AM,46.4,44.6,93,30.29,1.2,West,5.8,-,N/A,,Overcast,270,2012-10-07 18:56:00
11:16 AM,46.4,44.6,93,30.29,1.2,West,4.6,-,N/A,,Overcast,280,2012-10-07 19:16:00
11:30 AM,46.4,44.6,93,30.28,10.0,West,4.6,-,N/A,,Overcast,260,2012-10-07 19:30:00
11:36 AM,46.4,44.6,93,30.28,10.0,West,5.8,-,N/A,,Overcast,270,2012-10-07 19:36:00
11:56 AM,48.2,44.6,87,30.29,10.0,West,5.8,-,N/A,,Mostly Cloudy,280,2012-10-07 19:56:00
12:16 PM,48.2,44.6,87,30.28,10.0,WSW,5.8,-,N/A,,Mostly Cloudy,250,2012-10-07 20:16:00
12:36 PM,50.0,46.4,87,30.27,10.0,NW,4.6,-,N/A,,Mostly Cloudy,320,2012-10-07 20:36:00
12:56 PM,50.0,46.4,87,30.27,10.0,NW,5.8,-,N/A,,Partly Cloudy,310,2012-10-07 20:56:00
1:16 PM,51.8,46.4,82,30.27,10.0,WNW,4.6,-,N/A,,Partly Cloudy,290,2012-10-07 21:16:00
1:36 PM,53.6,46.4,77,30.26,10.0,West,5.8,-,N/A,,Partly Cloudy,270,2012-10-07 21:36:00
1:56 PM,53.6,46.4,77,30.25,10.0,WNW,5.8,-,N/A,,Partly Cloudy,300,2012-10-07 21:56:00
2:16 PM,53.6,46.4,77,30.25,10.0,WNW,6.9,-,N/A,,Partly Cloudy,300,2012-10-07 22:16:00
2:36 PM,53.6,46.4,77,30.25,10.0,WNW,4.6,-,N/A,,Partly Cloudy,300,2012-10-07 22:36:00
2:56 PM,53.6,46.4,77,30.24,10.0,West,5.8,-,N/A,,Clear,280,2012-10-07 22:56:00
3:16 PM,53.6,46.4,77,30.24,10.0,WNW,6.9,-,N/A,,Clear,300,2012-10-07 23:16:00
3:36 PM,53.6,46.4,77,30.23,10.0,WNW,9.2,-,N/A,,Clear,300,2012-10-07 23:36:00
3:56 PM,53.6,46.4,77,30.22,10.0,WNW,9.2,-,N/A,,Clear,290,2012-10-07 23:56:00
4:16 PM,53.6,46.4,77,30.22,10.0,WNW,5.8,-,N/A,,Clear,300,2012-10-08 00:16:00
4:56 PM,51.8,44.6,76,30.21,10.0,WNW,8.1,-,N/A,,Clear,300,2012-10-08 00:56:00
5:16 PM,51.8,44.6,76,30.20,10.0,WNW,6.9,-,N/A,,Clear,290,2012-10-08 01:16:00
5:36 PM,50.0,44.6,82,30.20,10.0,WNW,5.8,-,N/A,,Clear,290,2012-10-08 01:36:00
5:56 PM,50.0,42.8,76,30.19,10.0,WNW,8.1,-,N/A,,Clear,300,2012-10-08 01:56:00
6:16 PM,50.0,42.8,76,30.19,10.0,WNW,8.1,-,N/A,,Clear,300,2012-10-08 02:16:00
6:36 PM,50.0,42.8,76,30.19,10.0,WNW,5.8,-,N/A,,Clear,300,2012-10-08 02:36:00
6:56 PM,48.2,42.8,82,30.19,10.0,WNW,6.9,-,N/A,,Clear,300,2012-10-08 02:56:00
7:16 PM,48.2,42.8,82,30.20,10.0,NW,4.6,-,N/A,,Clear,320,2012-10-08 03:16:00
7:36 PM,48.2,42.8,82,30.19,10.0,WSW,4.6,-,N/A,,Clear,240,2012-10-08 03:36:00
7:56 PM,48.2,42.8,82,30.19,10.0,NNW,3.5,-,N/A,,Clear,340,2012-10-08 03:56:00
8:16 PM,46.4,42.8,87,30.19,10.0,West,3.5,-,N/A,,Clear,280,2012-10-08 04:16:00
8:36 PM,46.4,41.0,81,30.19,10.0,WSW,3.5,-,N/A,,Clear,240,2012-10-08 04:36:00
8:56 PM,46.4,42.8,87,30.19,0.2,WSW,4.6,-,N/A,,Clear,250,2012-10-08 04:56:00
9:16 PM,48.2,42.8,82,30.19,10.0,West,3.5,-,N/A,,Clear,260,2012-10-08 05:16:00
9:36 PM,46.4,42.8,87,30.19,10.0,West,4.6,-,N/A,,Clear,270,2012-10-08 05:36:00
9:56 PM,46.4,42.8,87,30.19,10.0,Calm,Calm,-,N/A,,Clear,0,2012-10-08 05:56:00
10:16 PM,46.4,42.8,87,30.19,10.0,WNW,3.5,-,N/A,,Clear,300,2012-10-08 06:16:00
10:36 PM,46.4,42.8,87,30.18,10.0,WSW,3.5,-,N/A,,Clear,250,2012-10-08 06:36:00
10:56 PM,46.4,42.8,87,30.18,10.0,WNW,5.8,-,N/A,,Clear,290,2012-10-08 06:56:00
11:16 PM,46.4,41.0,81,30.18,10.0,West,5.8,-,N/A,,Clear,270,2012-10-08 07:16:00
11:36 PM,46.4,42.8,87,30.18,10.0,West,4.6,-,N/A,,Clear,270,2012-10-08 07:36:00
11:56 PM,46.4,42.8,87,30.18,10.0,West,4.6,-,N/A,,Clear,260,2012-10-08 07:56:00